ONEWEB-0585, 54652

Orbit data source: Space-Track

ONEWEB-0585, 54652 is a payload satellite owned by One Web (NAA) (UK) in LEO that was launched on Thu, 08 Dec 2022 UTC via an FALCON 9 launch vehicle from the Air Force Eastern Test Range (AFETR). Payload-class satellites include a variety of spacecraft equipped with specific instruments for various scientific and technological missions. These include communications satellites like Starlink; space stations such as the ISS; scientific satellites like the Hubble; Earth observation satellites from companies like Planet Labs, Umbra, and HawkEye 360; GPS; miniature CubeSats for education and research; and military/defense satellites.

Loading next visibility...
Identifier
54652, 2022-166L
Orbit
LEO
Country
Flag of UKUK
Related business
Manufacturer
One Web
Mission
Operational Commercial Communications
Bus & Motor
ARROW, Unknown motor
Mass
148 kg wet, ~140 kg dry
Launch date (UTC)
2022-12-08 (4 years ago)
Launch vehicle
FALCON 9
Launch site
Air Force Eastern Test Range (AFETR)
Object type
Payload
Rocket body
Debris
Shape & HBR
Trap Box + 2 Pan, 6.7 m
Radar Cross Section
3.464 m², Large (>1 m²)

Expand to show TLE details & history
Last TLE update: 2 days ago

TLE from 2 days ago
0 ONEWEB-0585
1 54652U 22166L   26171.44168145 -.00000011  00000-0 -57109-4 0  9999
2 54652  87.9254 243.3227 0002033 103.3056 256.8305 13.21826730171953
Epoch: 2026-06-20T10:36Z
TLE epoch observation values (Epoch: 2026-06-20T10:36:01.277Z)
Latitude
0.00002°
Longitude
175.66113°
Altitude
1,181.006 km
Speed
7.263 km/s
True Right ascension
16h 13m 17s
True Declination
0° 00' 00"
Sunlit
Object was in full shadow at epoch
Visualization orbit readout
Latitude
Unknown
Longitude
Unknown
Altitude
Unknown
Speed
Unknown
Apparent Right ascension
Unknown
Apparent Declination
Unknown
Sunlit
N/A
Visualization observer readout
Local Sidereal Time
21:23:58
Azimuth
Unknown
Elevation
Unknown
Doppler factor
Unknown
Orbital elements
Apogee altitude
1,176.389 km
Perigee altitude
1,173.318 km
Semi-major axis
7,552.99 km
Eccentricity
0.0002
Inclination
87.9254°
RAAN
243.3227°
Arg. of periapsis
103.3056°
True anomaly
256.80782°
Mean anomaly
256.8305°
Eccentric anomaly
256.81916°
Mean motion
3.30647 °/min
Orbital period
108.88 mins
BSTAR
-0.000057109
Loading maneuver chart data...
Computing Atmospheric mass density...
Loading historical data...
Loading historical data...
Loading historical data...
Loading historical data...
Loading historical data...
Loading historical data...
Loading historical data...

Documentation

Showing up to 5 results
|